Aérodrome :
LOGIN :

S'inscrire | Disclaimer

   EN    FR    IT 

 










Légende :    VFR   VFR Marginal   IFR   IFR Intensif   IFR Très Intensif
Visi : 
Plafond : 
>= 8 km
>= 3000ft
5 à 8 km
1000 à 3000 ft
1500m à 5 km
500 à 1000 ft
800 à 1500m
200 à 500 ft
< 800m
< 200 ft
Symboles :   Orages  Brouillard  Fortes neiges  Fortes précipitations  Vent > 20 kt
SIGMETs :   Divers  Orages  Givrage  Turbulence  Onde Orograph.  Cendres Volcan.







- Altitude de l'aérodrome : 144 ft
- Code IATA : PGF
- Voir les cartes d'approche


LFMP - Perpignan

DERNIER METAR :
  • 211400Z AUTO 09004KT 030V150 CAVOK 15/09 Q1029 NOSIG

METARs EXPIRÉS :
  • 211330Z AUTO 08004KT 030V130 CAVOK 15/09 Q1029 NOSIG
  • 211300Z AUTO 07003KT 010V150 CAVOK 14/09 Q1029 NOSIG
  • 211230Z AUTO 07004KT 020V110 CAVOK 14/09 Q1029 NOSIG
  • 211200Z AUTO 09004KT 030V150 CAVOK 14/09 Q1029 NOSIG
  • 211130Z AUTO 07003KT 010V110 CAVOK 13/08 Q1029 NOSIG

TAF TAF LFMP
Valide du 21 à 09h jusqu'au 22 à 09h UTC


210800Z 2109/2209 VRB02KT CAVOK
TEMPO 2109/2111 BKN010
TEMPO 2111/2118 08012KT
BECMG 2203/2206 30012KT
BECMG 2206/2209 32015G25KT
ATIS : +33 4 68 63 75 12
Pas de NOTAMs connus pour ce terrain.



MET'MAP, la Météo Aéronautique d'un coup d'oeil ! - Copyright ORBIFLY Décembre 2007 - Disclaimer

ORBIFLY MET'MAP TEAM :

Programmation & Développement : Alexandra Zaïnal
Conception & Développement : Baudouin d'Aumeries
Co-Programmation & Développement : Marc-Olivier Méhu
Soutien technique & logistique : Manuel Goepfert

Contact : metmap@orbifly.com




SOURCES & CREDITS :

   NOAA